[Date Prev][Date Next][Thread Prev][Thread Next] - [Date Index][Thread Index][Author Index]
2 Line ISS Keps 2-8
- Subject: [sarex] 2 Line ISS Keps 2-8
- From: "Dave Larsen PhD" <doc@xxxxxxxxxxx>
- Date: Fri, 8 Feb 2002 01:54:18 -0800
ISS
1 25544U 98067A 02039.24176939 .00076692 00000-0 91083-3 0 484
2 25544 51.6406 341.1702 0005888 51.6311 99.8418 15.60467003183911
----
Via the sarex mailing list at AMSAT.ORG courtesy of AMSAT-NA.
To unsubscribe, send "unsubscribe sarex" to Majordomo@amsat.org
AMSAT Home